Pacific - Georgia Basin: Past 24 Hour Conditions

 

Vancouver Int'l Airport

08:00 PM PDT 03 August 2015
Disclaimer

This table is a summary of hourly weather conditions for the past 24 hours.
Please note that these observations might not always be representative of weather conditions over their associated marine area.

Date / Time
(PDT)
Wind(knots) Conditions Visibility(km) Pressure(kPa) Air tempC) Relative humidity(%) Dew pointC) Humidex
03 August 2015
20:00 W 4 Mainly Sunny 48 101.2 20 77 16 25
19:00 SW 6 Partly Cloudy 48 101.2 21 71 16 26
18:00 WSW 4 Partly Cloudy 48 101.2 21 69 15 25
17:00 WSW 8 Partly Cloudy 48 101.2 22 70 16 27
16:00 WSW 9 Partly Cloudy 48 101.2 22 70 16 26
15:00 WSW 10 Mainly Sunny 48 101.2 22 67 16 26
14:00 SW 9 Partly Cloudy 48 101.2 22 69 16 27
13:00 SW 9 Partly Cloudy 48 101.2 21 71 16 26
12:00 SSE 6 Partly Cloudy 48 101.2 23 57 14 26
11:00 SSE 10 Partly Cloudy 48 101.3 21 59 13 24
10:00 ESE 9 Partly Cloudy 48 101.2 20 66 14 23
9:00 ESE 8 Partly Cloudy 48 101.2 19 69 13 *
8:00 ESE 10 Partly Cloudy 48 101.2 18 72 13 *
7:00 E 9 Partly Cloudy 48 101.2 16 84 13 *
6:00 E 8 Partly Cloudy 48 101.2 15 83 12 *
5:00 SE 6 Partly Cloudy 32 101.1 15 79 12 *
4:00 SSE 2 Partly Cloudy 32 101.1 16 82 13 *
3:00 N 1 Partly Cloudy 32 101.1 17 73 13 *
2:00 ESE 4 Partly Cloudy 32 101.1 18 74 13 *
1:00 S 4 Partly Cloudy 32 101.1 18 86 16 *
0:00 WSW 3 Mostly Cloudy 32 101.1 19 85 16 *
02 August 2015
23:00 S 3 Mostly Cloudy 32 101.1 20 81 17 *
22:00 calm Mostly Cloudy 48 101.1 20 84 17 *
21:00 S 4 Mostly Cloudy 48 101.1 20 85 18 26
20:00 NW 4 Mostly Cloudy 48 101.1 22 72 17 27

Zoom-in to make a selection

Map of Pacific - Georgia Basin marine weather areas Tsawwassen Ferry Terminal Sentry Shoal - 46131 Halibut Bank - 46146 La Perouse Bank - 46206 Discovery Island Esquimalt Harbour Kelp Reefs Malahat Race Rocks Lightstation Saturna Island Sheringham Point University of Victoria Victoria Gonzales Victoria Int'l Airport Ballenas Islands Campbell River Airport Comox Airport Entrance Island Fanny Island Nanaimo Airport Sisters Islets Estevan Point Tofino Airport Grief Point Powell River Airport Sechelt Point Atkinson Sand Heads Lightstation Vancouver Harbour Vancouver Int'l Airport West Vancouver Port Alberni Howe Sound - Pam Rocks Squamish Airport
Legend:
buoy Buoy
land station Land Station

Pacific - Georgia Basin Area

Another Region

What we are doing

Date modified: